• Join FlightAware (Why Join?)
  • Login
  • US Flag 
01:52PM EDT


 

Airport Tracker/Info


-or-


 

Live Flight TrackerFlight Track Log ✈ UAL582 ✈ 23-Apr-2013 ✈ KORD - KRSW

Flight Track Log - Related Links

Times and Time Zones

All times are in EDT time to prevent confusion due to time zone crossing. See the UAL582 flight status page for this flight to view local times or setup timezone preferences in your user account.

Time Position Orientation Groundspeed Altitude Reporting Facility
EDT Latitude Longitude Course Direction KTS MPH feet Rate Location/Type
08:17PM 41.9667 -88.0167 236° Southwest 246 283 4,900  Level Chicago TRACON
08:18PM 41.9000 -88.0000 169° South 264 304 5,000 1,380 Climbing Chicago TRACON
08:19PM 41.8333 -88.0000 180° South 265 305 7,600 2,520 Climbing Chicago TRACON
08:20PM 41.8222 -87.9925 153° Southeast 267 307 8,000 3,180 Climbing Chicago Center
08:21PM 41.7372 -87.9669 167° South 264 304 11,800 3,120 Climbing Chicago Center
08:22PM 41.2975 -87.5748 180° South  Level Estimated
08:22PM 41.6597 -87.9453 168° South 280 322 14,500  Level Chicago Center
08:23PM 41.5675 -87.9194 168° South 336 387 15,800 2,520 Climbing Chicago Center
08:24PM 41.4658 -87.8917 168° South 362 417 19,700 3,240 Climbing Chicago Center
08:25PM 41.3628 -87.8822 176° South 362 417 22,600 2,520 Climbing Chicago Center
08:26PM 41.2594 -87.8911 184° South 368 423 25,000 2,100 Climbing Chicago Center
08:27PM 41.1578 -87.8811 176° South 369 425 27,000 1,680 Climbing Chicago Center
08:28PM 41.0517 -87.8481 167° South 391 450 28,500 1,020 Climbing Chicago Center
08:29PM 40.9178 -87.8131 169° South 409 471 29,200 900 Climbing Chicago Center
08:30PM 40.7994 -87.7836 169° South 428 493 30,400 1,260 Climbing Chicago Center
08:31PM 40.6808 -87.7528 169° South 435 501 31,800 1,380 Climbing Chicago Center
08:32PM 40.5619 -87.7228 169° South 436 502 33,300 1,260 Climbing Chicago Center
08:33PM 40.4447 -87.6944 170° South 431 496 34,500 960 Climbing Chicago Center
08:34PM 40.3514 -87.6733 170° South 428 493 35,000 240 Climbing Indianapolis Center
08:35PM 40.2317 -87.6436 169° South 435 501 35,000  Level Indianapolis Center
08:36PM 40.1108 -87.6150 170° South 439 505 35,000  Level Indianapolis Center
08:37PM 39.9908 -87.5836 169° South 438 504 35,000  Level Indianapolis Center
08:38PM 39.8492 -87.5489 169° South 443 510 35,000  Level Indianapolis Center
08:39PM 39.7269 -87.5194 170° South 445 512 35,000 240 Level Indianapolis Center
08:40PM 39.6033 -87.4881 169° South 449 517 35,500 660 Climbing Indianapolis Center
08:41PM 39.4819 -87.4594 170° South 445 512 36,400 720 Climbing Indianapolis Center
08:42PM 39.3583 -87.4297 169° South 450 518 37,000 240 Climbing Indianapolis Center
08:43PM 39.2361 -87.4000 169° South 447 514 37,000  Level Indianapolis Center
08:44PM 39.1156 -87.3708 169° South 451 519 37,000  Level Indianapolis Center
08:45PM 38.9911 -87.3417 170° South 453 521 37,000  Level Indianapolis Center
08:46PM 38.8425 -87.3056 169° South 450 518 37,000  Level Indianapolis Center
08:47PM 38.7178 -87.2756 169° South 453 521 37,000  Level Indianapolis Center
08:48PM 38.5944 -87.2458 169° South 450 518 37,000  Level Indianapolis Center
08:49PM 38.4717 -87.2175 170° South 449 517 37,000  Level Indianapolis Center
08:50PM 38.3450 -87.1878 170° South 451 519 37,000  Level Indianapolis Center
08:51PM 38.2192 -87.1594 170° South 456 525 37,000  Level Indianapolis Center
08:52PM 38.1058 -87.1319 169° South 452 520 37,000  Level Indianapolis Center
08:53PM 37.9586 -87.0978 170° South 449 517 37,000  Level Indianapolis Center
08:54PM 37.8356 -87.0692 170° South 448 516 37,000  Level Indianapolis Center
08:55PM 37.7119 -87.0411 170° South 449 517 37,000  Level Indianapolis Center
08:56PM 37.5889 -87.0128 170° South 448 516 37,000  Level Indianapolis Center
08:56PM 37.5489 -87.0036 170° South 455 524 37,000  Level Memphis Center
08:57PM 37.4275 -86.9750 169° South 449 517 37,000  Level Memphis Center
08:58PM 37.3017 -86.9489 171° South 455 524 37,000  Level Memphis Center
08:59PM 37.1906 -86.9225 169° South 455 524 37,000  Level Memphis Center
09:00PM 37.0689 -86.8939 169° South 449 517 37,000  Level Memphis Center
09:01PM 36.9472 -86.8681 170° South 455 524 37,000  Level Memphis Center
09:02PM 36.8236 -86.8372 169° South 455 524 37,000  Level Memphis Center
09:03PM 36.6997 -86.8089 170° South 449 517 37,000  Level Memphis Center
09:04PM 36.5761 -86.7808 170° South 449 517 37,000  Level Memphis Center
09:05PM 36.4394 -86.7456 168° South 449 517 37,000  Level Memphis Center
09:06PM 36.3117 -86.7231 172° South 466 536 37,000  Level Memphis Center
09:07PM 36.1858 -86.6953 170° South 467 537 37,000  Level Memphis Center
09:08PM 36.0592 -86.6469 163° South 467 537 37,000  Level Memphis Center
09:09PM 35.9533 -86.5953 158° South 467 537 37,000  Level Memphis Center
09:11PM 35.7686 -86.5033 158° South 480 552 37,000  Level Atlanta Center
09:12PM 35.6489 -86.4461 159° South 474 545 37,000  Level Atlanta Center
09:13PM 35.5289 -86.3864 158° South 469 540 37,000  Level Atlanta Center
09:14PM 35.4028 -86.3242 158° South 469 540 37,000  Level Atlanta Center
09:15PM 35.2831 -86.2675 159° South 469 540 37,000  Level Atlanta Center
09:16PM 35.1653 -86.2033 156° South 469 540 37,000  Level Atlanta Center
09:17PM 35.0264 -86.1414 160° South 467 537 37,000  Level Atlanta Center
09:18PM 34.9292 -86.0933 158° South 472 543 37,000  Level Atlanta Center
09:19PM 34.7967 -86.0244 157° South 472 543 37,000  Level Atlanta Center
09:20PM 34.6725 -85.9633 158° South 472 543 37,000  Level Atlanta Center
09:21PM 34.5481 -85.9075 160° South 472 543 37,000  Level Atlanta Center
09:22PM 34.4258 -85.8469 158° South 472 543 37,000  Level Atlanta Center
09:23PM 34.2911 -85.7886 160° South 464 534 37,000  Level Atlanta Center
09:24PM 34.1667 -85.7333 160° South 471 542 37,000  Level Atlanta Center
09:25PM 34.0422 -85.6708 157° South 476 548 37,000  Level Atlanta Center
09:26PM 33.9136 -85.6133 160° South 486 559 37,000  Level Atlanta Center
09:27PM 33.8017 -85.5586 158° South 486 559 37,000  Level Atlanta Center
09:28PM 33.6769 -85.5017 159° South 486 559 37,000  Level Atlanta Center
09:29PM 33.5525 -85.4422 158° South 491 565 37,000  Level Atlanta Center
09:30PM 33.4258 -85.3828 159° South 485 558 37,000  Level Atlanta Center
09:31PM 33.2969 -85.3261 160° South 491 565 37,000  Level Atlanta Center
09:32PM 33.1725 -85.2672 158° South 486 559 37,000  Level Atlanta Center
09:33PM 33.0417 -85.1986 156° South 498 573 37,000  Level Atlanta Center
09:34PM 32.9167 -85.1572 164° South 489 563 37,000  Level Atlanta Center
09:35PM 32.7981 -85.1261 168° South 484 557 37,000  Level Atlanta Center
09:36PM 32.6525 -85.0675 161° South 483 556 37,000  Level Atlanta Center
09:37PM 32.5317 -85.0267 164° South 483 556 37,000  Level Atlanta Center
09:38PM 32.3964 -84.9811 164° South 483 556 37,000  Level Atlanta Center
09:39PM 32.2547 -84.9403 166° South 484 557 37,000  Level Atlanta Center
09:40PM 32.1256 -84.8947 163° South 484 557 37,000  Level Atlanta Center
09:41PM 31.9964 -84.8519 164° South 478 550 37,000  Level Atlanta Center
09:43PM 31.6875 -84.7408 163° South 478 550 37,000  Level Jacksonville Center
09:44PM 31.5608 -84.6822 158° South 483 556 37,000  Level Jacksonville Center
09:45PM 31.4344 -84.6261 159° South 488 562 37,000  Level Jacksonville Center
09:46PM 31.3058 -84.5656 158° South 488 562 37,000  Level Jacksonville Center
09:47PM 31.1769 -84.5050 158° South 493 567 37,000  Level Jacksonville Center
09:48PM 31.0464 -84.4469 159° South 493 567 37,000  Level Jacksonville Center
09:49PM 30.9217 -84.3917 159° South 493 567 37,000  Level Jacksonville Center
09:50PM 30.7928 -84.3314 158° South 493 567 37,000  Level Jacksonville Center
09:51PM 30.6642 -84.2739 159° South 493 567 37,000 -60 Level Jacksonville Center
09:52PM 30.5269 -84.2092 158° South 493 567 36,900 -60 Descending Jacksonville Center
09:53PM 30.4106 -84.1594 160° South 493 567 36,900  Level Jacksonville Center
09:54PM 30.2817 -84.1025 159° South 493 567 37,000  Climbing Jacksonville Center
09:55PM 30.1383 -84.0333 157° South 500 575 37,000  Level Jacksonville Center
09:56PM 30.0094 -83.9672 156° South 500 575 37,000  Level Jacksonville Center
09:57PM 29.8825 -83.9033 156° South 500 575 37,000  Level Jacksonville Center
09:58PM 29.7536 -83.8422 158° South 500 575 37,000  Level Jacksonville Center
09:59PM 29.6225 -83.7767 157° South 500 575 37,000  Level Jacksonville Center
10:00PM 29.4936 -83.7133 157° South 506 582 37,000  Level Jacksonville Center
10:01PM 29.3708 -83.6314 150° Southeast 506 582 37,000  Level Jacksonville Center
10:02PM 29.2481 -83.5447 148° Southeast 513 590 37,000  Level Jacksonville Center
10:03PM 29.1211 -83.4678 152° Southeast 519 597 37,000 -60 Level Jacksonville Center
10:04PM 28.9900 -83.4125 160° South 514 592 36,900 -120 Descending Jacksonville Center
10:05PM 28.8586 -83.3572 160° South 514 592 36,800 -540 Descending Jacksonville Center
10:06PM 28.7253 -83.2950 158° South 509 586 35,900 -1,200 Descending Jacksonville Center
10:09PM 28.4286 -83.1747 160° South 510 587 32,800 -1,620 Descending Miami Center
10:10PM 28.2978 -83.1156 158° South 510 587 30,600 -2,160 Descending Miami Center
10:11PM 28.1686 -83.0614 160° South 505 581 28,500 -1,800 Descending Miami Center
10:12PM 28.0478 -83.0100 159° South 494 568 27,000 -780 Descending Miami Center
10:13PM 27.9272 -82.9542 158° South 482 555 27,000 -60 Level Miami Center
10:14PM 27.8008 -82.8864 155° Southeast 463 533 26,900 -600 Descending Miami Center
10:15PM 27.7033 -82.8225 150° Southeast 451 519 25,800 -1,680 Descending Miami Center
10:16PM 27.5933 -82.7583 153° Southeast 445 512 23,600 -2,340 Descending Miami Center
10:17PM 27.4753 -82.6867 152° Southeast 439 505 21,200 -2,220 Descending Miami Center
10:18PM 27.3733 -82.6256 152° Southeast 424 488 19,200 -1,740 Descending Miami Center
10:19PM 27.2753 -82.5717 154° Southeast 399 459 17,800 -1,440 Descending Miami Center
10:20PM 27.1814 -82.5156 152° Southeast 394 453 16,400 -1,440 Descending Miami Center
10:21PM 27.0897 -82.4622 153° Southeast 388 447 14,900 -1,500 Descending Miami Center
10:22PM 27.0019 -82.4067 151° Southeast 376 433 13,500 -1,500 Descending Miami Center
10:23PM 26.9144 -82.3536 152° Southeast 365 420 11,900 -1,320 Descending Miami Center
10:24PM 26.8306 -82.3056 153° Southeast 352 405 10,900 -1,200 Descending Miami Center
10:25PM 26.7594 -82.2581 149° Southeast 327 376 9,600 -1,380 Descending Miami Center
10:26PM 26.6944 -82.2039 143° Southeast 303 349 8,100 -1,560 Descending Miami Center
10:27PM 26.6275 -82.1544 147° Southeast 292 336 6,500 -1,620 Descending Miami Center
10:28PM 26.5689 -82.0983 139° Southeast 287 330 4,900 -1,680 Descending Miami Center
10:29PM 26.5125 -82.0425 138° Southeast 281 323 3,300 -1,020 Descending Miami Center
10:30PM 26.4644 -81.9825 132° Southeast 268 308 2,900 -420 Descending Miami Center